• In Belarus
  • List of Countries
  • For 7 days
  • Water Temperature
  • Weather Map
  • Weather Widgets
  • user-avatar
    Login

    Hourly Weather Nea Filadhelfia

    Today, 23 October, Wednesday

    Time Temperature Precipitation Wind Pressure Humidity
    00:00 +19°C° 0 mm 6 mps 756 mmHg 74%
    01:00 +19°C° 0 mm 6 mps 756 mmHg 76%
    02:00 +19°C° 0 mm 6 mps 756 mmHg 78%
    03:00 +19°C° 0 mm 6 mps 756 mmHg 78%
    04:00 +17°C° 0 mm 6 mps 756 mmHg 78%
    05:00 +17°C° 0 mm 6 mps 756 mmHg 78%
    06:00 +19°C° 0 mm 6 mps 756 mmHg 76%
    07:00 +19°C° 0 mm 6 mps 756 mmHg 73%
    08:00 +18°C° 0 mm 7 mps 756 mmHg 71%
    09:00 +20°C° 0 mm 7 mps 756 mmHg 64%
    10:00 +22°C° 0 mm 7 mps 756 mmHg 57%
    11:00 +23°C° 0 mm 8 mps 756 mmHg 51%
    12:00 +23°C° 0 mm 8 mps 756 mmHg 48%
    13:00 +24°C° 0 mm 8 mps 756 mmHg 46%
    14:00 +24°C° 0 mm 8 mps 755 mmHg 44%
    15:00 +23°C° 0 mm 7 mps 755 mmHg 45%
    16:00 +23°C° 0 mm 7 mps 755 mmHg 46%
    17:00 +22°C° 0 mm 6 mps 755 mmHg 48%
    18:00 +21°C° 0 mm 5 mps 755 mmHg 52%
    19:00 +20°C° 0 mm 5 mps 755 mmHg 55%
    20:00 +19°C° 0 mm 4 mps 755 mmHg 59%
    21:00 +19°C° 0 mm 4 mps 755 mmHg 58%
    22:00 +18°C° 0 mm 4 mps 755 mmHg 58%
    23:00 +18°C° 0 mm 4 mps 756 mmHg 58%

    Tomorrow, 24 October, Thursday

    Time Temperature Precipitation Wind Pressure Humidity
    00:00 +18°C° 0 mm 4 mps 755 mmHg 58%
    01:00 +18°C° 0 mm 4 mps 755 mmHg 59%
    02:00 +18°C° 0 mm 4 mps 755 mmHg 59%
    03:00 +18°C° 0 mm 4 mps 755 mmHg 59%
    04:00 +18°C° 0 mm 4 mps 754 mmHg 60%
    05:00 +17°C° 0 mm 4 mps 754 mmHg 60%
    06:00 +18°C° 0 mm 4 mps 754 mmHg 59%
    07:00 +18°C° 0 mm 4 mps 754 mmHg 59%
    08:00 +19°C° 0 mm 4 mps 755 mmHg 58%
    09:00 +20°C° 0 mm 5 mps 755 mmHg 51%
    10:00 +22°C° 0 mm 5 mps 755 mmHg 44%
    11:00 +25°C° 0 mm 5 mps 755 mmHg 37%
    12:00 +25°C° 0 mm 5 mps 754 mmHg 35%
    13:00 +26°C° 0 mm 5 mps 754 mmHg 34%
    14:00 +26°C° 0 mm 5 mps 754 mmHg 32%
    15:00 +25°C° 0 mm 5 mps 754 mmHg 34%
    16:00 +25°C° 0 mm 5 mps 753 mmHg 35%
    17:00 +23°C° 0 mm 4 mps 753 mmHg 37%
    18:00 +22°C° 0 mm 4 mps 753 mmHg 41%
    19:00 +21°C° 0 mm 4 mps 753 mmHg 45%
    20:00 +19°C° 0 mm 3 mps 754 mmHg 49%
    21:00 +19°C° 0 mm 3 mps 754 mmHg 50%
    22:00 +19°C° 0 mm 3 mps 754 mmHg 51%
    23:00 +18°C° 0 mm 3 mps 754 mmHg 52%

    Day after tomorrow, 25 October, Friday

    Time Temperature Precipitation Wind Pressure Humidity
    00:00 +18°C° 0 mm 3 mps 754 mmHg 52%
    01:00 +18°C° 0 mm 3 mps 754 mmHg 52%
    02:00 +17°C° 0 mm 3 mps 754 mmHg 52%
    03:00 +17°C° 0 mm 3 mps 753 mmHg 53%
    04:00 +17°C° 0 mm 3 mps 753 mmHg 55%
    05:00 +17°C° 0 mm 3 mps 753 mmHg 56%
    06:00 +17°C° 0 mm 3 mps 754 mmHg 55%
    07:00 +18°C° 0 mm 3 mps 754 mmHg 54%
    08:00 +18°C° 0 mm 3 mps 754 mmHg 53%
    09:00 +20°C° 0 mm 3 mps 754 mmHg 48%
    10:00 +22°C° 0 mm 3 mps 755 mmHg 43%
    11:00 +24°C° 0 mm 3 mps 755 mmHg 38%
    12:00 +25°C° 0 mm 3 mps 755 mmHg 36%
    13:00 +26°C° 0 mm 3 mps 754 mmHg 35%
    14:00 +27°C° 0 mm 3 mps 754 mmHg 34%
    15:00 +26°C° 0 mm 3 mps 754 mmHg 37%
    16:00 +25°C° 0 mm 3 mps 754 mmHg 40%
    17:00 +25°C° 0 mm 2 mps 754 mmHg 43%
    18:00 +24°C° 0 mm 2 mps 754 mmHg 47%
    19:00 +21°C° 0 mm 2 mps 755 mmHg 51%
    20:00 +20°C° 0 mm 2 mps 755 mmHg 55%
    21:00 +20°C° 0 mm 2 mps 755 mmHg 54%
    22:00 +19°C° 0 mm 3 mps 755 mmHg 54%
    23:00 +19°C° 0 mm 3 mps 755 mmHg 53%

    26 October, Saturday

    Time Temperature Precipitation Wind Pressure Humidity
    00:00 +19°C° 0 mm 3 mps 755 mmHg 53%
    01:00 +18°C° 0 mm 3 mps 755 mmHg 52%
    02:00 +18°C° 0 mm 3 mps 755 mmHg 52%
    03:00 +18°C° 0 mm 3 mps 755 mmHg 54%
    04:00 +18°C° 0 mm 3 mps 755 mmHg 57%
    05:00 +18°C° 0 mm 3 mps 755 mmHg 59%
    06:00 +18°C° 0 mm 4 mps 756 mmHg 59%
    07:00 +18°C° 0 mm 4 mps 756 mmHg 58%
    08:00 +19°C° 0 mm 4 mps 756 mmHg 57%
    09:00 +20°C° 0 mm 4 mps 756 mmHg 52%
    10:00 +22°C° 0 mm 4 mps 757 mmHg 47%
    11:00 +25°C° 0 mm 5 mps 757 mmHg 41%
    12:00 +26°C° 0 mm 5 mps 757 mmHg 39%
    13:00 +26°C° 0 mm 5 mps 756 mmHg 37%
    14:00 +27°C° 0 mm 5 mps 756 mmHg 36%
    15:00 +26°C° 0 mm 5 mps 756 mmHg 37%
    16:00 +25°C° 0 mm 5 mps 756 mmHg 39%
    17:00 +23°C° 0 mm 5 mps 756 mmHg 41%
    18:00 +22°C° 0 mm 4 mps 756 mmHg 46%
    19:00 +21°C° 0 mm 4 mps 756 mmHg 51%
    20:00 +20°C° 0 mm 4 mps 756 mmHg 56%
    21:00 +19°C° 0 mm 4 mps 756 mmHg 56%
    22:00 +19°C° 0 mm 4 mps 756 mmHg 57%
    23:00 +18°C° 0 mm 4 mps 756 mmHg 58%

    27 October, Sunday

    Time Temperature Precipitation Wind Pressure Humidity
    00:00 +18°C° 0 mm 4 mps 756 mmHg 57%
    01:00 +18°C° 0 mm 4 mps 755 mmHg 57%
    02:00 +18°C° 0 mm 4 mps 755 mmHg 57%
    03:00 +17°C° 0 mm 4 mps 755 mmHg 57%
    04:00 +17°C° 0 mm 4 mps 755 mmHg 58%
    05:00 +17°C° 0 mm 4 mps 755 mmHg 59%
    06:00 +18°C° 0 mm 4 mps 755 mmHg 58%
    07:00 +18°C° 0 mm 4 mps 755 mmHg 56%
    08:00 +18°C° 0 mm 4 mps 755 mmHg 55%
    09:00 +20°C° 0 mm 4 mps 755 mmHg 49%
    10:00 +22°C° 0 mm 4 mps 755 mmHg 43%
    11:00 +25°C° 0 mm 4 mps 755 mmHg 36%
    12:00 +26°C° 0 mm 4 mps 755 mmHg 34%
    13:00 +26°C° 0 mm 4 mps 755 mmHg 32%
    14:00 +27°C° 0 mm 5 mps 754 mmHg 30%
    15:00 +26°C° 0 mm 4 mps 754 mmHg 32%
    16:00 +26°C° 0 mm 4 mps 754 mmHg 34%
    17:00 +25°C° 0 mm 3 mps 754 mmHg 36%
    18:00 +24°C° 0 mm 3 mps 754 mmHg 39%
    19:00 +22°C° 0 mm 3 mps 754 mmHg 42%
    20:00 +20°C° 0 mm 2 mps 754 mmHg 45%
    21:00 +20°C° 0 mm 2 mps 754 mmHg 45%
    22:00 +20°C° 0 mm 2 mps 754 mmHg 44%
    23:00 +20°C° 0 mm 2 mps 754 mmHg 43%

    28 October, Monday

    Time Temperature Precipitation Wind Pressure Humidity
    00:00 +19°C° 0 mm 2 mps 753 mmHg 43%
    01:00 +19°C° 0 mm 2 mps 753 mmHg 43%
    02:00 +19°C° 0 mm 3 mps 753 mmHg 43%
    03:00 +19°C° 0 mm 3 mps 753 mmHg 43%
    04:00 +18°C° 0 mm 3 mps 753 mmHg 43%
    05:00 +18°C° 0 mm 3 mps 753 mmHg 44%
    06:00 +19°C° 0 mm 3 mps 753 mmHg 43%
    07:00 +19°C° 0 mm 3 mps 753 mmHg 42%
    08:00 +20°C° 0 mm 2 mps 753 mmHg 42%
    09:00 +23°C° 0 mm 2 mps 753 mmHg 37%
    10:00 +24°C° 0 mm 2 mps 753 mmHg 32%
    11:00 +26°C° 0 mm 2 mps 754 mmHg 28%
    12:00 +27°C° 0 mm 2 mps 753 mmHg 26%
    13:00 +28°C° 0 mm 2 mps 753 mmHg 25%
    14:00 +28°C° 0 mm 2 mps 753 mmHg 24%
    15:00 +27°C° 0 mm 2 mps 753 mmHg 27%
    16:00 +26°C° 0 mm 2 mps 752 mmHg 31%
    17:00 +26°C° 0 mm 1 mps 752 mmHg 34%
    18:00 +24°C° 0 mm 1 mps 752 mmHg 37%
    19:00 +23°C° 0 mm 1 mps 752 mmHg 40%
    20:00 +22°C° 0 mm 1 mps 753 mmHg 43%
    21:00 +22°C° 0 mm 1 mps 753 mmHg 43%
    22:00 +21°C° 0 mm 1 mps 753 mmHg 43%
    23:00 +21°C° 0 mm 1 mps 753 mmHg 44%

    29 October, Tuesday

    Time Temperature Precipitation Wind Pressure Humidity
    00:00 +20°C° 0 mm 1 mps 753 mmHg 43%
    01:00 +20°C° 0 mm 1 mps 753 mmHg 42%
    02:00 +20°C° 0 mm 1 mps 753 mmHg 41%
    03:00 +20°C° 0 mm 1 mps 753 mmHg 40%
    04:00 +19°C° 0 mm 1 mps 752 mmHg 40%
    05:00 +19°C° 0 mm 1 mps 752 mmHg 40%
    06:00 +20°C° 0 mm 1 mps 753 mmHg 39%
    07:00 +20°C° 0 mm 1 mps 753 mmHg 38%
    08:00 +21°C° 0 mm 1 mps 753 mmHg 37%
    09:00 +23°C° 0 mm 1 mps 753 mmHg 33%
    10:00 +24°C° 0 mm 1 mps 753 mmHg 30%
    11:00 +26°C° 0 mm 1 mps 754 mmHg 26%
    12:00 +26°C° 0 mm 1 mps 754 mmHg 26%
    13:00 +27°C° 0 mm 2 mps 753 mmHg 25%
    14:00 +27°C° 0 mm 2 mps 753 mmHg 25%
    15:00 +26°C° 0 mm 2 mps 753 mmHg 28%
    16:00 +26°C° 0 mm 2 mps 753 mmHg 31%
    17:00 +25°C° 0 mm 2 mps 752 mmHg 34%
    18:00 +24°C° 0 mm 1 mps 753 mmHg 39%
    19:00 +23°C° 0 mm 1 mps 753 mmHg 43%
    20:00 +22°C° 0 mm 1 mps 753 mmHg 47%
    21:00 +21°C° 0 mm 1 mps 753 mmHg 48%
    22:00 +21°C° 0 mm 1 mps 753 mmHg 48%
    23:00 +20°C° 0 mm 1 mps 753 mmHg 49%
    Show more